This is the latest recevied weather packets stored in our database for station/object W7TTE. If no packets are shown the sender has not sent any weather packets the latest 10 day(s).
| Time | Temp. | Humidity | Pressure | Rain* | Wind** | Luminosity | Snow |
|---|---|---|---|---|---|---|---|
| 1777372695 | 12.78° C | 40% | 1016.5 hPa | 0 mm | - | 0 W/m² | - |
| 1777372393 | 13.33° C | 39% | 1016.3 hPa | 0 mm | - | 0 W/m² | - |
| 1777372092 | 13.33° C | 38% | 1016.5 hPa | 0 mm | - | 0 W/m² | - |
| 1777371788 | 13.33° C | 39% | 1016.6 hPa | 0 mm | - | 0 W/m² | - |
| 1777371484 | 13.33° C | 39% | 1016.7 hPa | 0 mm | - | 0 W/m² | - |
| 1777371180 | 12.78° C | 39% | 1016.6 hPa | 0 mm | - | 0 W/m² | - |
| 1777370877 | 12.78° C | 40% | 1016.7 hPa | 0 mm | - | 0 W/m² | - |
| 1777370573 | 13.33° C | 43% | 1016.9 hPa | 0 mm | - | 0 W/m² | - |
| 1777370269 | 12.78° C | 46% | 1016.6 hPa | 0 mm | - | 0 W/m² | - |
| 1777369964 | 13.33° C | 41% | 1016.6 hPa | 0 mm | - | 0 W/m² | - |
| 1777369662 | 13.33° C | 40% | 1016.2 hPa | 0 mm | - | 0 W/m² | - |
| 1777369361 | 13.89° C | 39% | 1016.3 hPa | 0 mm | - | 0 W/m² | - |
| 1777369057 | 13.89° C | 39% | 1016.5 hPa | 0 mm | - | 0 W/m² | - |
| 1777368756 | 13.89° C | 41% | 1016.5 hPa | 0 mm | - | 0 W/m² | - |
| 1777368451 | 13.89° C | 43% | 1016.6 hPa | 0 mm | - | 0 W/m² | - |
| 1777368147 | 13.89° C | 45% | 1016.6 hPa | 0 mm | - | 0 W/m² | - |
| 1777367845 | 14.44° C | 43% | 1016.6 hPa | 0 mm | - | 0 W/m² | - |
| 1777367541 | 14.44° C | 42% | 1016.6 hPa | 0 mm | - | 0 W/m² | - |
| 1777367236 | 14.44° C | 42% | 1016.7 hPa | 0 mm | - | 0 W/m² | - |
| 1777366931 | 14.44° C | 41% | 1016.8 hPa | 0 mm | - | 0 W/m² | - |
| 1777366631 | 15° C | 41% | 1016.6 hPa | 0 mm | - | 0 W/m² | - |
| 1777366331 | 15° C | 41% | 1016.8 hPa | 0 mm | - | 0 W/m² | - |
| 1777366028 | 15° C | 39% | 1016.9 hPa | 0 mm | - | 0 W/m² | - |
| 1777365724 | 15° C | 37% | 1016.7 hPa | 0 mm | - | 0 W/m² | - |
| 1777365420 | 15° C | 39% | 1016.8 hPa | 0 mm | - | 0 W/m² | - |
* Rain latest hour (hover to see other rain measurements)
** Current wind speed in m/s (hover to see current wind gust speed)